logo
Rechercher aéroport 
image banner adimage banner adimage banner ad
image banner ad

EGLL - London Heathrow

Situé à London, United Kingdom

ICAO - EGLL, IATA - LHR

Données fournies par Airmate  

Information générale

Coordonnées: N51°28'39" W0°27'41"
Élévation : 83 feet MSL.
 
Évalué:
Voir évaluations:
[VIEW]
Voir autres Aéroports à England

Données opérationnelles

Special qualification required
Heure actuelle UTC:
Heure actuelle locale:
Météo
METAR: EGLL 230920Z AUTO 23009KT 200V260 9999 NCD 06/03 Q0986
TAF: TAF EGLL 230453Z 2306/2412 23009KT 9999 FEW020 PROB30 TEMPO 2306/2309 BKN014 TEMPO 2312/2321 7000 SHRA PROB30 TEMPO 2313/2320 4000 +SHRA BKN014CB PROB40 TEMPO 2323/2409 6000 BKN005
Voir NOTAMs / SUP AIP / TFR affectant cet aéroport [VIEW]
Fréquences de communication: [VIEW]

Pistes:

Identifiant RWYQFULongueur (ft)Largeur (ft)SurfaceLDA (ft)
09L90°12799164ASP
27R270°12799164ASP
09R90°12001164ASP
27L270°12001164ASP

Coordonnées de l'aéroport

Adresse: London United Kingdom

Handlers

Signature Flight Support

Signature Flight Support

Menzies Aviation

Menzies Aviation
[VIEW][VIEW]
+447711898398

Vue satellite de EGLL